TimeCDT,TemperatureF,Dew PointF,Humidity,Sea Level PressureIn,VisibilityMPH,Wind Direction,Wind SpeedMPH,Gust SpeedMPH,PrecipitationIn,Events,Conditions,WindDirDegrees,DateUTC
12:15 AM,71.1,60.1,68,29.85,10.0,West,4.6,-,N/A,,Clear,280,2013-07-20 05:15:00
12:35 AM,70.2,59.9,70,29.85,10.0,West,4.6,-,N/A,,Clear,280,2013-07-20 05:35:00
12:55 AM,70.3,59.5,69,29.85,10.0,West,5.8,-,N/A,,Clear,280,2013-07-20 05:55:00
1:15 AM,69.3,59.4,71,29.85,10.0,West,4.6,-,N/A,,Clear,270,2013-07-20 06:15:00
1:35 AM,68.9,59.7,72,29.85,10.0,West,4.6,-,N/A,,Clear,280,2013-07-20 06:35:00
1:55 AM,68.2,59.7,74,29.85,10.0,West,4.6,-,N/A,,Clear,280,2013-07-20 06:55:00
2:15 AM,67.8,59.4,74,29.85,10.0,West,3.5,-,N/A,,Clear,280,2013-07-20 07:15:00
2:35 AM,68.0,59.2,73,29.84,10.0,West,3.5,-,N/A,,Clear,270,2013-07-20 07:35:00
2:55 AM,65.8,59.2,79,29.84,10.0,West,3.5,-,N/A,,Clear,280,2013-07-20 07:55:00
3:15 AM,66.4,58.6,76,29.84,10.0,Calm,Calm,-,N/A,,Clear,0,2013-07-20 08:15:00
3:35 AM,64.6,59.0,82,29.84,10.0,Calm,Calm,-,N/A,,Clear,0,2013-07-20 08:35:00
3:55 AM,63.9,58.3,82,29.84,10.0,Calm,Calm,-,N/A,,Clear,0,2013-07-20 08:55:00
4:15 AM,62.4,58.5,87,29.84,10.0,Calm,Calm,-,N/A,,Clear,0,2013-07-20 09:15:00
4:35 AM,62.2,58.3,87,29.84,10.0,Calm,Calm,-,N/A,,Clear,0,2013-07-20 09:35:00
4:55 AM,62.2,58.5,87,29.84,10.0,Calm,Calm,-,N/A,,Clear,0,2013-07-20 09:55:00
5:15 AM,64.8,58.8,81,29.85,10.0,West,4.6,-,N/A,,Clear,280,2013-07-20 10:15:00
5:35 AM,65.7,59.0,79,29.85,10.0,WNW,3.5,-,N/A,,Scattered Clouds,290,2013-07-20 10:35:00
5:55 AM,65.7,59.0,79,29.87,10.0,Calm,Calm,-,N/A,,Mostly Cloudy,0,2013-07-20 10:55:00
6:15 AM,66.2,59.0,78,29.87,10.0,WNW,4.6,-,N/A,,Mostly Cloudy,290,2013-07-20 11:15:00
6:35 AM,66.2,59.2,78,29.88,10.0,Calm,Calm,-,N/A,,Clear,0,2013-07-20 11:35:00
6:55 AM,67.8,60.3,77,29.88,10.0,Calm,Calm,-,N/A,,Clear,0,2013-07-20 11:55:00
7:15 AM,69.3,60.8,74,29.88,10.0,West,3.5,-,N/A,,Clear,280,2013-07-20 12:15:00
7:35 AM,70.7,60.6,70,29.89,10.0,WNW,4.6,-,N/A,,Clear,300,2013-07-20 12:35:00
7:55 AM,72.1,59.4,64,29.89,10.0,North,5.8,-,N/A,,Scattered Clouds,350,2013-07-20 12:55:00
8:15 AM,73.0,59.2,62,29.90,10.0,North,6.9,-,N/A,,Scattered Clouds,350,2013-07-20 13:15:00
8:35 AM,73.4,59.4,61,29.90,10.0,North,4.6,-,N/A,,Mostly Cloudy,360,2013-07-20 13:35:00
8:55 AM,73.4,58.5,59,29.91,10.0,North,5.8,-,N/A,,Mostly Cloudy,360,2013-07-20 13:55:00
9:15 AM,75.2,57.9,55,29.91,10.0,NE,5.8,-,N/A,,Mostly Cloudy,40,2013-07-20 14:15:00
9:35 AM,76.1,58.3,54,29.91,10.0,NNE,6.9,-,N/A,,Mostly Cloudy,20,2013-07-20 14:35:00
9:55 AM,76.5,57.4,52,29.93,10.0,NNE,6.9,-,N/A,,Scattered Clouds,30,2013-07-20 14:55:00
10:15 AM,75.4,57.4,53,29.93,10.0,NNE,3.5,-,N/A,,Mostly Cloudy,30,2013-07-20 15:15:00
10:35 AM,76.3,57.7,53,29.93,10.0,NNE,3.5,-,N/A,,Mostly Cloudy,20,2013-07-20 15:35:00
10:55 AM,77.7,58.5,51,29.94,10.0,NNE,4.6,-,N/A,,Mostly Cloudy,20,2013-07-20 15:55:00
11:15 AM,78.1,58.5,51,29.94,10.0,East,4.6,-,N/A,,Mostly Cloudy,90,2013-07-20 16:15:00
11:35 AM,76.3,59.0,55,29.94,10.0,ENE,3.5,-,N/A,,Overcast,60,2013-07-20 16:35:00
11:55 AM,78.1,58.6,51,29.94,10.0,ESE,4.6,-,N/A,,Overcast,110,2013-07-20 16:55:00
12:15 PM,77.9,56.7,48,29.94,10.0,ENE,4.6,-,N/A,,Mostly Cloudy,70,2013-07-20 17:15:00
12:35 PM,79.0,54.5,43,29.94,10.0,East,3.5,-,N/A,,Scattered Clouds,80,2013-07-20 17:35:00
12:55 PM,79.3,55.2,43,29.94,10.0,East,5.8,-,N/A,,Mostly Cloudy,100,2013-07-20 17:55:00
1:15 PM,80.1,56.1,44,29.94,10.0,NE,3.5,-,N/A,,Scattered Clouds,50,2013-07-20 18:15:00
1:35 PM,78.1,59.5,53,29.94,10.0,SSW,5.8,-,N/A,,Mostly Cloudy,200,2013-07-20 18:35:00
1:55 PM,79.3,59.0,50,29.94,10.0,ESE,3.5,-,N/A,,Mostly Cloudy,110,2013-07-20 18:55:00
2:15 PM,81.1,59.2,47,29.93,10.0,NNE,8.1,-,N/A,,Scattered Clouds,30,2013-07-20 19:15:00
2:35 PM,76.5,58.5,54,29.94,10.0,ENE,6.9,-,N/A,,Mostly Cloudy,60,2013-07-20 19:35:00
2:55 PM,77.0,59.0,54,29.93,10.0,ENE,8.1,-,N/A,,Scattered Clouds,60,2013-07-20 19:55:00
3:15 PM,76.6,60.6,58,29.93,10.0,ENE,8.1,-,N/A,,Clear,70,2013-07-20 20:15:00
3:35 PM,79.0,59.7,52,29.93,10.0,East,6.9,-,N/A,,Clear,90,2013-07-20 20:35:00
3:55 PM,78.3,60.6,54,29.93,10.0,ENE,6.9,-,N/A,,Mostly Cloudy,70,2013-07-20 20:55:00
4:15 PM,76.3,60.8,59,29.93,10.0,NE,5.8,-,N/A,,Overcast,40,2013-07-20 21:15:00
4:35 PM,78.3,59.5,52,29.93,10.0,ENE,5.8,-,N/A,,Scattered Clouds,70,2013-07-20 21:35:00
4:55 PM,78.1,59.4,52,29.93,10.0,East,4.6,-,N/A,,Clear,90,2013-07-20 21:55:00
5:15 PM,78.1,59.7,53,29.93,10.0,East,4.6,-,N/A,,Clear,90,2013-07-20 22:15:00
5:35 PM,78.1,59.2,52,29.93,10.0,East,6.9,-,N/A,,Clear,80,2013-07-20 22:35:00
5:55 PM,76.6,58.8,54,29.93,10.0,NE,3.5,-,N/A,,Clear,50,2013-07-20 22:55:00
6:15 PM,76.8,59.0,54,29.93,10.0,ENE,3.5,-,N/A,,Clear,60,2013-07-20 23:15:00
6:35 PM,77.4,58.8,53,29.92,10.0,East,6.9,-,N/A,,Clear,90,2013-07-20 23:35:00
6:55 PM,76.3,58.6,54,29.92,10.0,East,4.6,-,N/A,,Scattered Clouds,80,2013-07-20 23:55:00
7:15 PM,76.3,59.2,55,29.93,10.0,East,4.6,-,N/A,,Scattered Clouds,80,2013-07-21 00:15:00
7:35 PM,74.5,59.0,58,29.93,10.0,ENE,4.6,-,N/A,,Clear,60,2013-07-21 00:35:00
7:55 PM,73.0,58.3,60,29.93,10.0,East,5.8,-,N/A,,Clear,80,2013-07-21 00:55:00
8:15 PM,71.8,58.6,63,29.94,10.0,East,6.9,-,N/A,,Clear,100,2013-07-21 01:15:00
8:35 PM,71.2,56.7,60,29.95,10.0,SE,4.6,-,N/A,,Clear,130,2013-07-21 01:35:00
8:55 PM,71.1,57.4,62,29.96,10.0,ESE,3.5,-,N/A,,Scattered Clouds,110,2013-07-21 01:55:00
9:15 PM,71.1,56.8,61,29.97,10.0,SE,6.9,-,N/A,,Overcast,140,2013-07-21 02:15:00
9:35 PM,70.2,57.6,64,29.98,10.0,ESE,8.1,-,N/A,,Overcast,120,2013-07-21 02:35:00
9:55 PM,69.3,57.2,65,29.98,10.0,SE,9.2,-,N/A,,Mostly Cloudy,130,2013-07-21 02:55:00
10:15 PM,69.3,56.8,65,29.99,10.0,ESE,8.1,-,N/A,,Scattered Clouds,120,2013-07-21 03:15:00
10:35 PM,68.7,57.2,67,29.99,10.0,East,6.9,-,N/A,,Mostly Cloudy,100,2013-07-21 03:35:00
10:55 PM,67.6,55.2,64,30.00,10.0,ESE,6.9,-,N/A,,Scattered Clouds,110,2013-07-21 03:55:00
11:15 PM,67.3,55.9,67,30.00,10.0,East,6.9,-,N/A,,Scattered Clouds,100,2013-07-21 04:15:00
11:35 PM,66.4,55.4,68,30.00,10.0,East,6.9,-,N/A,,Clear,80,2013-07-21 04:35:00
11:55 PM,65.7,52.3,62,30.01,10.0,East,9.2,-,N/A,,Clear,100,2013-07-21 04:55:00